Temp
40 40 40 39 39 38 38 37 36 35 34 33 33 32 32 31 30 30 30 30 29 29 29 29 29 29 30 29 29 29 28 28 27 27 27 27 26 26 27 25 25 25
39 39 38 38 37 36 35 36 35 34 33 32 32 31 30 30 30 30 30 29 29 29 28 29 29 29 29 28 28 28 28 28 28 28 27 26 26 25 25 24 24 24
37 36 36 36 36 35 34 33 33 32 32 31 31 31 31 31 30 28 29 29 29 28 28 28 28 28 28 28 27 28 27 27 26 26 26 26 25 26 24 24 24 24
36 37 37 36 35 34 33 33 31 31 31 31 31 31 31 31 29 29 29 29 29 28 28 28 28 27 27 27 27 26 26 26 25 25 25 25 25 25 24 24 24 24
36 36 35 35 34 33 33 33 31 31 31 31 31 30 30 30 29 29 28 28 28 27 28 27 27 27 27 27 27 26 26 25 24 25 25 24 24 25 24 24 23 22
35 35 35 34 34 33 33 32 32 31 31 30 31 30 30 30 29 29 28 28 27 27 27 27 27 27 27 26 26 26 26 26 24 24 24 24 23 24 25 24 22 22
35 34 34 34 33 33 33 32 31 31 31 31 30 30 29 29 29 28 28 28 27 27 27 27 27 27 26 26 26 25 25 24 23 24 24 23 23 22 23 22 22 22
34 34 34 33 33 32 32 31 31 31 31 30 30 29 29 29 29 28 28 27 27 27 27 28 29 27 26 26 26 25 25 26 24 23 23 22 22 21 22 24 22 21
34 34 33 33 33 32 32 31 31 30 30 30 30 29 29 29 29 28 28 27 27 28 29 29 28 27 26 26 25 25 24 24 24 23 23 22 22 22 21 21 21 21
34 33 33 33 33 32 31 31 31 30 30 30 30 29 29 28 28 28 28 28 29 29 29 27 26 26 26 26 25 24 24 24 23 22 21 21 21 20 20 19 19 19
33 33 33 33 33 32 31 31 30 30 30 30 29 28 28 28 28 28 29 29 29 29 28 28 28 28 27 25 24 23 23 23 22 21 20 20 20 20 23 19 19 18
33 33 33 33 33 32 31 31 30 30 29 29 29 29 28 29 28 28 28 28 29 29 29 28 28 28 27 25 23 23 22 22 21 20 20 19 19 19 20 19 18 18
34 33 33 33 32 32 31 30 30 30 29 29 29 30 29 28 28 28 29 29 29 29 29 28 27 25 24 23 22 21 21 21 20 20 19 18 18 18 18 18 18 18
34 33 33 33 32 31 31 30 30 30 30 29 28 29 29 29 29 30 30 29 29 29 29 28 27 26 25 23 22 21 21 20 20 19 19 18 18 18 18 17 18 18
33 33 32 31 31 30 30 30 30 31 30 28 29 29 30 30 30 29 28 29 29 29 27 27 27 26 25 23 22 23 22 20 19 19 19 18 17 17 17 17 17 17
34 33 32 31 30 30 30 30 30 30 29 28 28 28 28 29 29 29 29 29 28 28 27 27 26 25 26 29 27 23 21 20 19 18 18 18 18 17 17 17 17 17
34 33 32 30 31 31 30 30 30 29 27 28 27 26 26 27 28 28 28 28 28 27 26 25 24 24 29 32 31 30 22 19 18 18 18 18 17 17 16 17 17 17
33 33 31 31 31 29 29 29 28 26 26 26 27 27 27 27 27 27 28 28 27 26 26 26 25 27 31 32 32 32 27 20 18 17 17 18 18 17 17 17 17 17
33 32 31 30 30 30 29 28 27 26 26 26 26 27 26 25 27 27 26 26 25 25 25 25 25 29 31 33 33 33 31 24 17 17 17 17 18 17 17 17 16 16
32 31 30 30 30 29 28 27 26 26 27 27 26 26 25 25 25 25 25 25 25 25 25 24 24 28 32 33 33 33 32 27 18 18 18 17 18 18 17 17 17 16
32 31 30 30 29 28 27 26 26 26 26 26 26 26 25 24 25 24 24 23 23 24 24 23 22 27 32 33 33 33 33 30 19 20 19 19 19 18 18 17 17 17
32 31 30 29 29 27 27 27 26 26 26 26 25 25 25 25 25 24 23 22 22 22 22 21 21 28 31 33 33 34 33 27 20 21 20 19 18 19 18 18 18 18
32 31 30 29 28 27 26 27 27 26 26 26 24 25 24 24 24 23 23 22 21 20 20 22 20 26 31 32 33 34 32 23 20 20 19 18 18 19 18 18 17 17
32 31 30 29 28 27 27 27 28 27 26 25 25 24 24 24 24 22 22 21 20 19 20 20 19 22 29 32 33 33 31 22 21 20 19 18 18 19 17 16 16 20
31 31 30 29 28 28 28 27 27 27 27 25 24 25 24 24 22 22 20 19 19 19 20 19 17 19 28 31 32 33 31 22 20 19 18 17 16 16 17 16 15 18
31 30 30 30 29 29 28 27 27 25 24 23 22 22 22 21 20 20 20 19 18 16 16 17 16 14 19 30 32 32 33 23 19 18 17 16 15 15 13 14 14 14
MSLP
1026.77 1027.03 1027.33 1027.79 1028.15 1028.43 1028.69 1029.03 1029.39 1029.61 1029.97 1030.29 1030.45 1030.87 1031.01 1031.31 1031.55 1031.63 1031.79 1031.97 1032.09 1032.15 1032.27 1032.33 1032.39 1032.47 1032.59 1032.69 1032.79 1032.83 1032.85 1032.83 1032.93 1033.13 1033.31 1033.53 1033.71 1033.79 1033.95 1034.11 1034.27 1034.47
1026.71 1026.97 1027.39 1027.79 1028.27 1028.63 1028.87 1028.93 1029.19 1029.45 1029.89 1030.23 1030.51 1030.79 1031.13 1031.31 1031.61 1031.73 1031.87 1032.05 1032.23 1032.31 1032.41 1032.43 1032.47 1032.53 1032.63 1032.73 1032.83 1032.81 1032.91 1032.87 1032.99 1033.39 1033.41 1033.61 1033.87 1033.97 1034.15 1034.31 1034.49 1034.77
1026.65 1026.99 1027.27 1027.59 1028.01 1028.43 1028.71 1029.03 1029.25 1029.57 1029.85 1030.23 1030.53 1030.73 1031.01 1031.31 1031.59 1031.87 1032.01 1032.11 1032.25 1032.41 1032.47 1032.49 1032.51 1032.61 1032.71 1032.79 1032.87 1032.85 1032.85 1032.95 1033.21 1033.57 1033.65 1033.81 1033.99 1034.09 1034.39 1034.59 1034.69 1034.75
1026.59 1026.77 1027.11 1027.57 1027.99 1028.33 1028.73 1029.03 1029.43 1029.75 1030.05 1030.29 1030.43 1030.65 1030.89 1031.29 1031.61 1031.85 1032.05 1032.19 1032.31 1032.47 1032.55 1032.51 1032.49 1032.65 1032.75 1032.81 1032.75 1032.85 1032.97 1033.25 1033.65 1033.79 1033.91 1034.11 1034.17 1034.31 1034.49 1034.69 1034.89 1034.99
1026.39 1026.79 1027.19 1027.59 1028.05 1028.43 1028.71 1028.95 1029.25 1029.59 1029.81 1030.03 1030.45 1030.73 1030.97 1031.27 1031.57 1031.81 1032.01 1032.23 1032.37 1032.49 1032.55 1032.53 1032.61 1032.65 1032.69 1032.67 1032.63 1032.75 1033.13 1033.51 1033.93 1034.01 1034.05 1034.15 1034.39 1034.41 1034.61 1034.67 1034.81 1034.99
1026.57 1026.75 1027.09 1027.49 1027.89 1028.25 1028.59 1028.75 1028.99 1029.31 1029.67 1030.03 1030.27 1030.63 1030.89 1031.17 1031.41 1031.65 1031.87 1032.11 1032.37 1032.51 1032.61 1032.65 1032.61 1032.61 1032.49 1032.43 1032.53 1032.79 1033.19 1033.59 1033.95 1034.05 1034.11 1034.25 1034.47 1034.57 1034.69 1034.77 1034.89 1034.99
1026.27 1026.63 1026.99 1027.43 1027.81 1028.11 1028.27 1028.55 1028.87 1029.11 1029.37 1029.69 1030.23 1030.51 1030.75 1031.05 1031.29 1031.51 1031.77 1032.03 1032.33 1032.53 1032.65 1032.65 1032.53 1032.39 1032.35 1032.29 1032.43 1032.85 1033.35 1033.67 1033.95 1034.03 1034.09 1034.35 1034.51 1034.63 1034.77 1034.87 1034.93 1034.99
1026.11 1026.49 1026.87 1027.31 1027.67 1028.01 1028.21 1028.49 1028.71 1028.95 1029.27 1029.75 1029.97 1030.33 1030.59 1030.85 1031.11 1031.39 1031.71 1032.07 1032.33 1032.53 1032.69 1032.75 1032.51 1032.17 1032.23 1032.29 1032.49 1032.97 1033.43 1033.75 1033.91 1034.03 1034.17 1034.35 1034.49 1034.65 1034.81 1034.87 1034.93 1034.99
1025.93 1026.31 1026.73 1027.13 1027.47 1027.85 1028.09 1028.37 1028.61 1028.89 1029.25 1029.47 1029.83 1030.23 1030.61 1030.77 1030.93 1031.27 1031.69 1032.09 1032.39 1032.53 1032.61 1032.63 1032.25 1032.05 1032.23 1032.35 1032.65 1032.97 1033.31 1033.65 1033.89 1034.03 1034.17 1034.31 1034.43 1034.57 1034.71 1034.83 1034.87 1034.95
1025.77 1026.13 1026.53 1026.89 1027.17 1027.53 1027.85 1028.17 1028.47 1028.79 1029.13 1029.41 1029.73 1030.17 1030.45 1030.77 1030.99 1031.31 1031.71 1032.01 1032.25 1032.35 1032.47 1032.35 1032.03 1031.99 1032.13 1032.35 1032.63 1032.93 1033.21 1033.55 1033.87 1034.09 1034.23 1034.33 1034.41 1034.51 1034.65 1034.71 1034.79 1034.89
1025.57 1025.91 1026.17 1026.55 1026.85 1027.31 1027.67 1028.05 1028.35 1028.71 1029.07 1029.29 1029.73 1030.11 1030.39 1030.65 1031.01 1031.35 1031.61 1031.85 1031.97 1031.97 1032.09 1031.89 1031.71 1031.81 1031.99 1032.29 1032.65 1032.93 1033.17 1033.53 1033.85 1034.09 1034.23 1034.31 1034.37 1034.45 1034.53 1034.63 1034.75 1034.81
1025.33 1025.69 1025.89 1026.17 1026.59 1027.11 1027.51 1027.87 1028.25 1028.55 1028.87 1029.27 1029.55 1029.87 1030.25 1030.53 1030.79 1031.17 1031.41 1031.61 1031.67 1031.63 1031.49 1031.31 1031.51 1031.71 1031.91 1032.19 1032.55 1032.93 1033.23 1033.55 1033.85 1034.03 1034.17 1034.27 1034.35 1034.41 1034.49 1034.59 1034.67 1034.77
1025.15 1025.39 1025.69 1026.07 1026.49 1026.93 1027.45 1027.83 1028.11 1028.41 1028.75 1029.09 1029.47 1029.73 1030.03 1030.35 1030.65 1030.93 1031.25 1031.49 1031.57 1031.61 1031.33 1031.21 1031.51 1031.81 1031.99 1032.19 1032.51 1032.87 1033.21 1033.49 1033.77 1033.97 1034.11 1034.19 1034.27 1034.33 1034.47 1034.55 1034.61 1034.69
1024.93 1025.39 1025.71 1026.05 1026.49 1026.95 1027.31 1027.63 1027.99 1028.33 1028.67 1029.07 1029.39 1029.65 1029.87 1030.03 1030.25 1030.57 1030.99 1031.37 1031.49 1031.41 1031.13 1031.13 1031.35 1031.71 1031.97 1032.19 1032.41 1032.73 1033.11 1033.41 1033.63 1033.83 1033.97 1034.07 1034.17 1034.31 1034.41 1034.47 1034.51 1034.57
1024.97 1025.43 1025.81 1026.19 1026.55 1026.91 1027.25 1027.55 1027.85 1028.17 1028.55 1028.91 1029.23 1029.45 1029.65 1029.83 1030.11 1030.49 1030.85 1031.03 1031.19 1031.13 1031.03 1031.11 1031.29 1031.55 1031.89 1032.15 1032.33 1032.67 1032.99 1033.27 1033.51 1033.65 1033.79 1033.93 1034.09 1034.21 1034.31 1034.39 1034.41 1034.43
1024.87 1025.31 1025.71 1026.13 1026.51 1026.75 1027.03 1027.35 1027.69 1028.03 1028.39 1028.77 1029.07 1029.25 1029.41 1029.67 1029.99 1030.33 1030.53 1030.55 1030.71 1030.83 1030.91 1031.05 1031.23 1031.47 1031.81 1031.99 1032.11 1032.39 1032.77 1033.15 1033.43 1033.51 1033.63 1033.77 1033.93 1034.09 1034.19 1034.25 1034.27 1034.27
1024.93 1025.27 1025.69 1026.03 1026.23 1026.65 1027.01 1027.27 1027.57 1027.95 1028.29 1028.61 1028.89 1029.07 1029.25 1029.53 1029.89 1030.15 1030.19 1030.21 1030.29 1030.39 1030.57 1030.83 1031.07 1031.35 1031.61 1031.65 1031.77 1032.07 1032.59 1032.95 1033.13 1033.31 1033.47 1033.63 1033.77 1033.91 1034.03 1034.07 1034.09 1034.05
1024.73 1025.17 1025.57 1025.87 1026.19 1026.45 1026.79 1027.17 1027.57 1027.95 1028.19 1028.41 1028.71 1028.89 1029.09 1029.45 1029.73 1029.79 1029.87 1029.97 1030.17 1030.37 1030.47 1030.61 1030.85 1031.15 1031.33 1031.37 1031.41 1031.59 1032.13 1032.71 1032.95 1033.09 1033.25 1033.41 1033.59 1033.75 1033.85 1033.95 1033.89 1033.85
1024.61 1024.97 1025.29 1025.67 1025.95 1026.33 1026.75 1027.17 1027.45 1027.77 1027.99 1028.21 1028.33 1028.53 1028.99 1029.25 1029.45 1029.73 1029.81 1029.95 1030.07 1030.15 1030.29 1030.51 1030.71 1030.87 1031.01 1031.07 1031.07 1031.19 1031.61 1032.33 1032.77 1032.81 1032.95 1033.15 1033.35 1033.49 1033.63 1033.65 1033.67 1033.63
1024.43 1024.77 1025.11 1025.41 1025.85 1026.29 1026.69 1027.03 1027.29 1027.35 1027.53 1027.87 1028.23 1028.59 1028.81 1029.15 1029.45 1029.53 1029.67 1029.77 1029.79 1029.83 1029.99 1030.27 1030.53 1030.65 1030.63 1030.71 1030.75 1030.83 1031.17 1031.83 1032.47 1032.55 1032.65 1032.89 1033.05 1033.23 1033.33 1033.35 1033.31 1033.29
1024.23 1024.55 1024.89 1025.25 1025.65 1026.11 1026.53 1026.81 1026.99 1027.27 1027.57 1027.75 1027.99 1028.19 1028.49 1028.71 1028.91 1029.15 1029.21 1029.37 1029.53 1029.63 1029.79 1030.01 1030.21 1030.39 1030.31 1030.35 1030.41 1030.49 1030.75 1031.29 1032.17 1032.23 1032.39 1032.57 1032.79 1032.95 1033.01 1032.99 1032.95 1032.93
1023.81 1024.13 1024.55 1025.01 1025.49 1025.91 1026.27 1026.53 1026.75 1026.91 1027.11 1027.51 1027.93 1028.19 1028.43 1028.65 1028.79 1028.87 1028.95 1029.15 1029.35 1029.49 1029.61 1029.71 1029.95 1030.01 1029.95 1029.95 1030.03 1030.13 1030.43 1030.87 1031.65 1031.81 1032.01 1032.25 1032.49 1032.59 1032.65 1032.63 1032.63 1032.59
1023.39 1023.79 1024.27 1024.77 1025.25 1025.69 1025.95 1026.13 1026.35 1026.73 1027.05 1027.39 1027.75 1027.87 1028.09 1028.23 1028.23 1028.37 1028.63 1028.95 1029.19 1029.33 1029.29 1029.25 1029.59 1029.63 1029.53 1029.53 1029.61 1029.77 1030.11 1030.63 1031.19 1031.45 1031.65 1031.91 1032.01 1032.17 1032.25 1032.29 1032.27 1032.23
1023.33 1023.69 1024.09 1024.51 1024.95 1025.19 1025.35 1025.59 1025.95 1026.43 1026.77 1027.07 1027.29 1027.49 1027.63 1027.63 1027.91 1028.31 1028.61 1028.77 1028.97 1029.09 1028.95 1028.87 1028.97 1029.29 1029.17 1029.11 1029.21 1029.35 1029.59 1030.25 1030.71 1031.01 1031.23 1031.43 1031.63 1031.73 1031.89 1031.97 1031.95 1031.87
1023.03 1023.33 1023.65 1024.03 1024.37 1024.61 1024.93 1025.31 1025.59 1025.83 1026.21 1026.83 1027.01 1027.15 1027.21 1027.51 1027.99 1028.17 1028.37 1028.63 1028.73 1028.85 1029.07 1029.03 1028.87 1029.13 1028.97 1028.77 1028.81 1028.99 1029.21 1029.89 1030.39 1030.75 1030.97 1031.07 1031.25 1031.43 1031.49 1031.63 1031.69 1031.55
1022.69 1022.99 1023.25 1023.53 1023.77 1024.19 1024.73 1025.05 1025.41 1025.95 1026.23 1026.55 1026.93 1027.13 1027.27 1027.55 1027.91 1028.11 1028.15 1028.23 1028.57 1028.91 1028.97 1028.91 1028.89 1028.99 1029.03 1028.51 1028.49 1028.63 1028.75 1029.43 1030.03 1030.47 1030.45 1030.49 1030.75 1030.95 1031.29 1031.25 1031.27 1031.31
Wind_Speed
10 9 10 9 8 8 9 10 8 9 7 6 8 7 7 6 5 5 5 5 4 5 5 5 5 5 5 5 5 6 5 6 6 6 6 6 5 5 6 5 4 5
10 9 8 7 7 6 6 7 9 9 8 7 7 7 6 6 5 5 6 6 4 5 4 5 5 5 5 5 5 6 6 6 7 3 6 6 5 6 5 5 4 3
9 9 10 10 10 9 9 7 7 7 8 7 7 7 7 5 6 4 5 6 6 5 5 4 5 4 5 5 5 6 6 6 6 4 5 5 4 5 4 4 4 4
9 10 10 9 9 10 8 9 7 7 7 8 8 7 7 6 6 6 5 5 6 5 4 4 5 5 5 5 6 6 6 6 4 5 5 3 3 4 4 4 4 3
11 10 8 8 7 8 8 9 10 9 9 8 7 7 7 7 7 6 6 5 5 5 5 5 4 5 6 6 6 7 6 6 4 4 5 4 3 4 3 4 4 4
8 9 9 9 9 10 10 10 10 10 9 9 9 7 7 7 7 7 7 7 5 5 5 4 5 5 6 7 7 7 6 6 4 4 5 4 3 3 3 4 4 4
12 10 11 9 9 9 10 10 9 9 9 8 7 7 8 8 7 7 7 6 6 6 6 6 6 6 5 7 7 7 6 5 4 4 5 3 4 3 3 3 3 3
12 10 10 9 10 10 9 9 9 9 9 8 9 8 8 8 8 7 6 6 6 6 6 5 5 6 6 6 7 7 5 4 5 5 4 3 3 3 3 3 3 4
11 11 11 11 11 10 10 10 9 8 8 10 9 8 6 7 8 7 7 6 6 6 7 6 6 6 5 6 6 7 6 5 4 4 4 4 4 4 3 3 3 3
12 11 12 12 12 10 11 10 9 9 8 8 8 7 8 6 6 7 6 7 7 7 7 6 6 6 6 6 7 6 6 5 4 4 4 4 4 4 3 3 3 3
13 12 13 13 12 10 11 10 10 9 8 9 8 8 7 7 6 5 7 7 8 9 9 8 8 7 7 6 5 5 5 5 4 4 4 4 4 3 4 3 3 3
13 12 14 14 12 11 12 11 10 10 9 8 8 9 8 7 8 7 7 8 8 9 9 8 8 7 7 7 6 5 5 4 4 4 4 4 3 3 3 3 3 3
13 13 12 12 11 11 10 9 10 10 10 10 8 9 9 9 8 8 7 7 7 8 8 8 7 6 6 6 6 5 5 5 4 4 4 3 3 3 3 3 3 3
12 10 11 11 9 9 10 10 10 10 9 8 8 9 10 10 10 10 8 6 7 6 6 7 7 7 6 6 6 6 6 5 5 5 5 4 3 3 3 3 3 3
10 9 8 9 9 9 10 10 10 10 9 9 9 9 8 9 8 8 8 8 7 6 7 6 7 7 6 7 7 7 6 6 6 6 5 5 4 3 3 3 3 3
11 10 10 9 10 11 11 10 10 10 10 9 10 9 9 8 8 8 9 9 9 7 7 6 6 5 7 12 9 7 7 6 6 6 5 5 5 4 4 4 5 4
10 10 10 11 11 10 9 11 11 9 9 9 9 9 9 9 8 10 9 8 9 9 9 7 6 5 12 15 15 14 8 7 7 6 5 5 5 6 6 6 5 4
11 10 11 11 11 11 10 9 8 8 9 9 9 9 8 7 9 10 9 8 7 7 8 7 7 9 15 15 15 16 12 8 6 6 6 6 6 6 6 6 6 5
10 11 11 10 10 10 9 9 10 9 10 10 11 9 7 8 10 8 8 7 7 9 8 7 7 12 16 17 16 16 16 11 6 6 6 6 6 7 7 7 6 6
11 10 10 10 9 9 9 9 10 12 10 8 7 7 8 7 7 8 7 9 9 9 9 8 8 12 17 17 17 17 17 13 6 7 6 6 7 7 7 8 7 7
11 10 11 10 10 9 10 10 11 9 9 9 9 9 10 11 10 10 10 9 8 8 8 8 8 13 17 18 17 18 18 14 7 6 6 6 7 7 8 8 7 7
12 11 11 9 10 10 10 11 11 11 11 9 7 7 6 6 6 7 9 9 8 8 8 9 8 15 17 18 18 18 19 9 8 8 7 7 7 8 8 7 7 7
12 12 11 10 10 10 11 12 12 11 9 7 8 9 9 10 10 9 8 8 9 9 10 10 8 14 18 18 18 19 15 7 8 7 7 8 8 8 8 7 7 7
10 10 11 11 11 13 13 12 10 7 8 8 10 10 11 12 9 8 7 8 9 10 11 11 10 12 18 18 19 20 15 9 8 8 8 8 8 8 7 7 7 12
10 11 11 12 12 13 12 12 11 11 8 7 9 8 9 6 6 8 7 7 8 9 7 10 9 10 17 19 20 20 15 8 8 8 8 9 8 8 7 7 7 10
9 11 12 12 14 12 9 10 7 6 8 9 8 7 7 6 6 7 9 9 7 7 8 10 9 8 10 19 19 21 20 9 8 8 11 11 9 8 7 7 7 7
Wind_Direction
152 151 152 153 156 156 153 150 154 145 145 146 144 151 149 145 139 128 124 120 122 119 120 118 119 115 113 107 108 102 97 101 92 93 94 96 96 98 95 89 84 101
158 151 146 142 142 148 152 151 150 149 149 149 147 140 138 135 141 137 137 129 122 122 125 122 119 123 121 113 113 109 101 93 92 87 100 97 102 94 94 96 101 101
156 153 154 159 161 160 156 149 144 145 145 148 142 142 141 141 141 138 135 135 132 133 130 127 122 121 121 118 114 107 106 100 97 96 100 109 106 103 111 103 90 98
163 161 160 160 157 156 151 143 142 138 138 143 156 152 143 144 142 140 137 136 133 135 137 130 130 129 126 124 114 100 100 94 106 107 103 94 107 117 118 107 107 91
164 159 157 153 152 151 150 151 152 154 156 151 139 145 144 146 145 143 140 137 138 141 141 141 140 138 136 126 116 109 101 106 107 112 112 111 122 120 130 111 108 102
161 159 156 157 159 158 161 161 160 156 152 153 159 150 152 148 147 149 148 145 150 149 151 155 151 147 138 127 115 109 117 116 126 120 118 123 110 106 118 117 119 111
164 161 160 157 159 167 161 161 158 158 159 155 144 159 154 155 155 154 152 151 154 163 166 170 159 146 137 125 116 118 116 124 127 124 128 131 119 105 115 123 129 120
165 161 158 158 163 165 164 161 162 161 156 152 163 162 160 160 159 154 153 157 162 169 174 176 164 137 131 122 123 122 128 130 135 132 131 143 130 136 144 142 134 121
163 163 160 164 165 168 167 166 163 158 159 161 162 161 163 164 161 156 157 162 166 171 177 179 158 134 131 126 128 135 140 141 143 144 149 155 154 163 159 147 122 129
168 163 164 168 171 172 170 169 163 162 162 162 160 158 162 161 153 157 158 169 173 173 178 171 146 137 133 134 139 142 141 145 148 151 159 164 162 165 161 151 146 133
171 170 171 173 173 172 173 167 165 161 164 163 157 163 165 154 158 160 171 179 182 176 177 168 155 148 141 138 138 139 141 144 154 158 162 164 167 169 167 152 161 167
175 174 177 176 173 173 172 169 166 165 164 164 165 164 161 167 165 174 182 189 189 185 184 152 140 145 145 145 143 142 141 149 156 161 163 159 160 165 161 173 172 187
180 181 176 175 175 173 168 169 170 167 166 167 169 167 167 169 178 181 191 192 189 181 173 152 146 145 144 145 146 149 153 156 163 164 166 163 163 163 172 180 187 193
182 176 175 174 170 169 172 171 168 168 169 165 163 170 177 180 181 186 184 186 188 186 166 150 147 150 152 153 154 157 159 164 167 171 170 170 168 176 184 194 195 203
171 173 170 168 170 171 172 173 172 170 168 168 175 179 182 183 180 177 176 182 186 178 150 143 156 164 164 169 165 166 165 170 175 174 173 176 187 197 207 202 210 204
172 171 173 170 173 178 177 173 173 173 171 173 182 184 182 179 180 184 187 181 175 171 163 163 173 165 177 178 175 167 169 169 173 178 178 181 189 208 221 221 218 220
173 178 173 179 181 175 176 176 176 173 174 181 184 184 183 180 180 187 191 186 179 173 172 176 176 177 186 191 188 180 167 174 177 182 179 185 197 202 216 219 229 228
180 176 179 184 178 183 180 177 171 172 181 186 185 187 186 174 190 195 188 184 177 177 181 183 183 187 194 197 193 189 177 176 179 178 183 193 201 209 215 215 221 228
179 181 185 183 186 181 176 174 177 182 187 187 193 188 172 187 195 186 192 184 184 182 189 190 191 195 199 200 198 193 187 177 182 180 185 197 204 211 214 217 215 217
183 184 187 187 181 179 176 181 184 193 192 189 181 175 185 188 191 196 192 194 193 192 191 193 195 201 201 201 200 196 193 180 183 184 190 198 208 212 216 216 214 212
184 187 189 186 182 179 181 188 193 193 189 190 186 187 185 191 193 195 201 197 198 192 192 198 204 201 203 203 201 199 199 191 177 186 190 204 213 218 222 220 218 216
187 189 188 184 181 182 186 193 196 197 194 187 183 190 198 197 209 206 202 201 200 193 193 207 207 204 206 205 203 202 202 191 175 189 195 205 215 220 222 224 219 216
188 186 187 184 184 186 194 199 198 199 197 180 188 196 195 203 207 204 202 200 200 200 200 209 206 207 207 205 204 203 200 188 182 189 200 206 219 217 222 223 220 213
184 184 187 188 188 196 200 204 202 199 198 185 192 195 203 208 203 201 206 203 204 209 206 203 211 208 208 206 206 206 200 188 189 192 205 212 218 220 216 225 222 221
187 189 191 191 196 202 201 201 199 199 192 184 204 206 215 203 196 206 210 211 213 215 212 213 219 212 211 209 207 208 205 183 188 194 207 219 213 221 221 219 231 230
188 191 195 196 202 203 199 203 195 181 187 193 202 205 210 199 200 210 215 221 213 211 216 218 220 220 216 214 210 210 208 185 187 189 214 216 211 212 215 228 222 226